一网星座-0675星 (ONEWEB-0675)

导读 | 豆包AI

ONEWEB-0675是一颗由英国发射的卫星,于2023年3月9日顺利进入太空,它隶属于一网(OneWeb)卫星星座系统。该星座旨在构建全球低轨卫星互联网,为全球不同区域提供高速宽带互联服务,这颗卫星的成功入轨进一步完善了一网星座的全球网络覆盖布局,推动了全球卫星互联网服务能力的提升。

基本信息
目录编号:
55834
目录名称:
ONEWEB-0675
国际标识:
2023-029AQ
轨道中心:
EARTH
卫星名称:
一网星座-0675星
卫星全名:
一网星座-0675星 (ONEWEB-0675)
卫星状态:
在轨 (已飞行1149 天)
发射日期:
2023-03-09 UTC
国别 :
英国 (GB)
星等 :
--
轨道信息
数据来源 国际轨道数据 AOE轨道数据
星历时间 2026-04-30T22:15:47+0800
13小时前
查看轨道信息
2026-05-01T03:00:00+0800
8小时前
查看轨道信息
半长轴 7563.913km 7563.906km
偏心率 0.0001494 0.0001132
轨道倾角 87.915° 87.913°
近地点辐角 89.060° 70.201°
升交点赤经 314.469° 314.430°
平近点角 271.070° 147.116°
近地点 1184.645km 1184.912km
远地点 1186.907km 1186.626km
周期 109.114分钟 109.114分钟
每日圈数 13.197238 13.197256
详细信息
平衡模式:
三轴稳定
覆盖范围:
全球
运营商:
一网卫星公司
运营商所在国:
英国
制造商(研发单位):
一网卫星公司
制造商所在国:
英国
使用方式:
暂无
卫星简介
OneWeb卫星网络由648颗重约125公斤的微型卫星组成,运行在1200公里的轨道上。 每颗卫星都能够提供至少每秒8千兆位的吞吐量,以使用其高吞吐量的Ku频段有效载荷为家庭和移动平台提供互联网接入。该卫星仍在工作。
2D轨道图
3D轨道图
轨道高度分析图
轨道倾角分析图
轨道综合分析图
查看轨道综合分析图